Location: Poughquag
(41.6090°N, 73.6820°W)
Time: 09:51:48
(UTC-04:00)

ACS3 Solar Sail - Pass Details

Date: 27 June 2024
Orbit: 992 x 1023 km, 97.4° (Epoch: 11 July)

Event Time Altitude Azimuth Distance (km) Brightness Sun altitude
Exits shadow 21:54:59 16° 148° (SSE) 2,343 6.2 -12.5°
Maximum altitude 21:59:55 59° 73° (ENE) 1,138 5.0 -13.1°
Drops below altitude 10° 22:06:01 10° 356° (N) 2,765 8.0 -13.9°
Sets 22:08:31 0° 352° (N) 3,717 8.9 -14.2°
